Regional Weather Roundup
Issued by NWS

Home | Current Version | Previous Version | Graphics & Text | Print | Product List | Glossary Off
Versions: 1 2 3 4 5 6 7 8 9 10 11 12 13 14 15 16 17 18 19 20 21 22 23 24 25 26 27 28 29 30 31 32 33 34 35 36 37 38 39 40 41 42 43 44 45 46 47 48 49 50

655
ASUS43 KLSX 100910
RWRMO

WEATHER SUMMARY FOR MISSOURI
NATIONAL WEATHER SERVICE SPRINGFIELD MO
300 AM CST WED FEB 10 2016

NOTE: "FAIR" INDICATES FEW OR NO CLOUDS BELOW 12,000 FEET WITH NO
       SIGNIFICANT WEATHER AND/OR OBSTRUCTIONS TO VISIBILITY.
       CURRENT SKY AND/OR WEATHER CONDITIONS ARE NOT AVAILABLE FOR
       CHILLICOTHE AND FARMINGTON.

MOZ001>031-035>038-043-044-053-054-101000-
...NORTHERN AND WESTERN MISSOURI...

CITY           SKY/WX    TMP DP  RH WIND       PRES   REMARKS
KANSAS CTY INT CLOUDY    21  13  71 SW6       30.20F WCI  13
KANSAS C DTWN  CLOUDY    23  12  62 SW3       30.22F
LEE`S SUMMIT   CLOUDY    21  11  65 W5        30.21F WCI  15
ST JOSEPH      CLOUDY    20  14  77 S6        30.21F WCI  12
CHILLICOTHE      N/A     20  12  71 W3        30.21S
KIRKSVILLE     CLEAR     11   5  77 W5        30.16S WCI   3

$$
MOZ066>068-077>081-088>096-101>105-101000-
...SOUTHWEST MISSOURI...

CITY           SKY/WX    TMP DP  RH WIND       PRES   REMARKS
SPRINGFIELD    CLEAR     19   8  62 NW8       30.19F WCI   9
JOPLIN         CLEAR     20   9  62 CALM      30.26F

$$
MOZ032>034-039>042-045>050-055>058-069>072-101000-
...CENTRAL MISSOURI...

CITY           SKY/WX    TMP DP  RH WIND       PRES   REMARKS
COLUMBIA       CLEAR     17   9  70 NW9       30.17F WCI   6
JEFFERSON CITY PTCLDY    19   8  62 NW5       30.20F WCI  12
ROLLA          CLEAR     16   6  65 W9        30.14F WCI   4
SEDALIA        CLEAR     18   9  68 W6        30.21F WCI  10
WHITEMAN AFB   CLEAR     19  10  67 W5        30.19F WCI  13
WARRENSBURG    CLEAR     21  12  68 W5        30.22S WCI  15
OSAGE BEACH    CLEAR     19   7  58 NW7       30.20F WCI  10

$$
MOZ051-052-059>065-101000-
...EAST CENTRAL MISSOURI...

CITY           SKY/WX    TMP DP  RH WIND       PRES   REMARKS
ST LOUIS INTL  CLOUDY    18   5  57 NW15G22   30.15S WCI   4
SPIRIT OF STL  MOCLDY    17   6  62 W9        30.17S WCI   6
ST CHARLES     CLOUDY    17   6  62 NW17      30.16S WCI   1

$$
MOZ072>076-082>087-097>100-106>115-101000-
...SOUTH CENTRAL AND SOUTHEAST MISSOURI...

CITY           SKY/WX    TMP DP  RH WIND       PRES   REMARKS
CAPE GIRARDEAU PTCLDY    19   7  59 NW12      30.17R WCI   7
FARMINGTON     CLEAR     16   5  62 NW8       30.15R WCI   5
POPLAR BLUFF   CLEAR     22   7  52 NW7       30.18S WCI  13
WEST PLAINS    CLEAR     19   4  51 NW7       30.17R WCI  10

$$




USA.gov is the U.S. government's official web portal to all federal, state and local government web resources and services.